Regional Weather Roundup
Issued by NWS

Home | Current Version | Previous Version | Text Only | Print | Product List | Glossary On
Versions: 1 2 3 4 5 6 7 8 9 10 11 12 13 14 15 16 17 18 19 20 21 22 23 24 25 26 27 28 29 30 31 32 33 34 35 36 37 38 39 40 41 42 43 44 45 46 47 48 49 50
000
ASUS46 KSTO 060904
RWRCA

NORTHERN AND CENTRAL CA REGIONAL WEATHER ROUNDUP
NATIONAL WEATHER SERVICE SACRAMENTO CA
200 AM PDT WED MAY 06 2015

NOTE: FAIR INDICATES FEW OR NO CLOUDS BELOW 12,000 FEET WITH NO
SIGNIFICANT WEATHER AND/OR OBSTRUCTIONS TO VISIBILITY.

CAZ001-003-061000-
NORTHWEST AREA

CITY           SKY/WX    TMP DP  RH WIND       PRES   REMARKS
CRESCENT CITY  CLEAR     44  42  93 CALM      30.06S
UKIAH          CLEAR     51  39  63 NE6       29.91F
$$

CAZ006-505>513-061000-
BAY AREA

CITY           SKY/WX    TMP DP  RH WIND       PRES   REMARKS
SANTA ROSA     CLEAR     45  43  93 S5        29.86F
SAN RAFAEL     N/A       53  MM  MM MISG
NAPA           CLEAR     50  45  83 SW9       29.87F
CONCORD        CLEAR     53  45  74 S18G24    29.87F
OAKLAND CITY   N/A       54  MM  MM MISG
OAKLAND        MOCLDY    52  45  77 SW8       29.91F
SAN FRAN CITY  N/A       50  MM  82 MISG
SAN FRAN ARPT  MOCLDY    52  45  77 W13G22    29.91F
LIVERMORE      CLEAR     53  45  74 SW13G20   29.89F
HAYWARD        CLOUDY    53  45  74 SW9       29.91F
REDWOOD CITY   N/A       MM  MM  MM MISG
MOFFETT ARPT   CLEAR     51  43  74 SE3       29.93F
SAN JOSE ARPT  CLEAR     51  45  79 SE13      29.93S
$$
CAZ034-037-514>518-061000-
CENTRAL COAST

CITY           SKY/WX    TMP DP  RH WIND       PRES   REMARKS
WATSONVILLE    CLEAR     46  43  89 CALM      29.96S
SALINAS        CLOUDY    56  44  64 SW13      29.97F
MONTEREY       CLOUDY    53  44  71 SW10      29.98F
SAN LUIS OBISP CLOUDY    53  45  74 W6        29.97F
SANTA MARIA    CLOUDY    54  45  71 NW10      29.98F
$$
CAZ015-016-061000-
NORTHERN SACRAMENTO VALLEY

CITY           SKY/WX    TMP DP  RH WIND       PRES   REMARKS
REDDING        CLEAR     63  37  38 NW6       29.84S
RED BLUFF      CLEAR     62  37  39 N7        29.84S
OROVILLE       CLEAR     59  50  72 SE6       29.83F
$$
CAZ016>018-061000-
SOUTHERN SACRAMENTO VALLEY

CITY           SKY/WX    TMP DP  RH WIND       PRES   REMARKS
AUBURN         CLEAR     54  46  76 SE6       29.85F
BEALE AFB      CLEAR     55  47  73 S8        29.81F
LINCOLN        FAIR      55  43  62 SE8       29.82F
MARYSVILLE     CLEAR     57  46  66 SE10      29.83S
SAC INTL ARPT  CLEAR     55  46  71 SE9       29.82S
MATHER AIRPORT NOT AVBL
DOWNTOWN SAC   N/A       56  MM  MM MISG
SAC EXEC ARPT  CLEAR     55  46  71 S7        29.84S
VACAVILLE      CLEAR     57  45  64 SW9       29.82S
TRAVIS AFB     CLEAR     53  47  79 SW24      29.81S
$$
CAZ019>021-061000-
SAN JOAQUIN VALLEY

CITY           SKY/WX    TMP DP  RH WIND       PRES   REMARKS
STOCKTON       CLEAR     54  43  66 W10       29.85S
MODESTO        CLEAR     55  42  61 N6        29.84S
MERCED         CLEAR     50  43  77 W5        29.85F
LEMOORE        CLEAR     56  41  57 CALM      29.85S
FRESNO         PTCLDY    56  43  61 N7        29.85S
HANFORD        CLEAR     60  41  49 N7        29.84F
PORTERVILLE    CLEAR     55  39  54 SE6       29.86S
BAKERSFIELD    CLEAR     57  37  47 N7        29.86F
$$
CAZ011-012-071-061000-
NORTHERN MOUNTAINS

CITY           SKY/WX    TMP DP  RH WIND       PRES   REMARKS
YREKA          CLEAR     41  31  67 N10       30.02S
MOUNT SHASTA   CLOUDY    45  28  51 N9G20     29.97S
ALTURAS        MOCLDY    42  26  53 N3        29.95S
$$
CAZ011-012-071-061000-
SIERRA NEVADA MTNS

CITY           SKY/WX    TMP DP  RH WIND       PRES   REMARKS
BLUE CANYON    CLEAR     50  26  39 CALM      29.94F
TAHOE VLY ARPT CLEAR     34  26  72 S5        29.95F WCI  30
MAMMOTH LAKES  FAIR      34  27  75 CALM      29.96F
$$




USA.gov is the U.S. government's official web portal to all federal, state and local government web resources and services.